Погода в Бирске

Россия / Республика Башкортостан     55°25′03″N   55°31′50″E
темп.,
°C
ветер,
м/с
пор.,
м/с
влажн.,
%
обл.,
%
осадки,
мм/ч
давл.,
гПа
погр.,
м
26 сентября, вс
вс2623:00+9вюв51089100 0.7 1012354
02:00+9в4986100 0.3 1011321
05:00+9всв3785100 0.4 1010231
08:00+9в368298 0.0 1009180
11:00+13вюв465995 0.0 1008388
14:00+13вюв4860100 0.0 1009548
17:00+14вюв7958100 0.0 10081078
20:00+10вюв71377100 0.2 1010676
27 сентября, пн
пн2723:00+9вюв81380100 0.4 1010622
02:00+8в71381100 0.4 1010548
05:00+6в81385100 0.7 1011555
08:00+4в71382100 0.3 1011587
11:00+6в91470100 0.3 1012777
14:00+6в91567100 0.0 1015940
17:00+4всв91677100 0.3 10171020
20:00+4всв81774100 0.9 10181369
28 сентября, вт
вт2823:00+5всв8156682 0.9 10191146
02:00+4всв7136894 0.0 1020892
05:00+2св714765 0.0 1021631
08:00+1св815795 0.0 1022661
11:00+5всв9115727 0.0 10231112
14:00+9всв794392 0.0 10231836
17:00+8всв784668 0.0 10241636
20:00+6всв694985 0.0 1026676
29 сентября, ср
ср2923:00+5св475398 0.0 1026263
02:00+3св486588 0.0 1027322
05:000ссв367922 0.0 1028110
08:000ссв37765 0.0 1028161
11:00+6св57535 0.0 1028862
14:00+9св554295 0.0 10281847
17:00+8св454181 0.0 10281733
20:00+4св225649 0.0 102922
30 сентября, чт
чт3023:00+2ссв22675 0.0 103011
02:00+1ссв227238 0.0 103013
05:00+1с2274100 0.0 103111
08:000ссз11775 0.0 103110
11:00+6сз33545 0.0 1031522
14:00+9сз44445 0.0 10291370
17:00+9сз564530 0.0 10281537
20:00+4зсз366684 0.0 102877